EZY6DE EGPH-EGGP

Flight info

Callsign EZY6DE
Flight time 0h 44m
Altitude 25000
Route GOSAM P600 FENIK L612 LAKEY
Aircraft A320/M-SDE3FGHIRWY/LB1

Departure

Time 2026-04-26 19:41
Airport Edinburgh Airport (EGPH)

Arrival

Time 2026-04-26 20:25
Airport Liverpool John Lennon Airport (EGGP)
Time Latitude Longitude Altitude Speed Heading
2026-04-26 19:22 55.94766 -3.35554 116 ft 0 kts 208°
2026-04-26 19:30 55.94772 -3.35548 112 ft 4 kts 208°
2026-04-26 19:30 55.94795 -3.35525 113 ft 4 kts 208°
2026-04-26 19:30 55.94814 -3.35499 114 ft 4 kts 261°
2026-04-26 19:30 55.94813 -3.35471 113 ft 4 kts 294°
2026-04-26 19:31 55.94800 -3.35425 114 ft 2 kts 298°
2026-04-26 19:31 55.94799 -3.35423 114 ft 0 kts 298°
2026-04-26 19:35 55.94804 -3.35439 113 ft 4 kts 298°
2026-04-26 19:35 55.94818 -3.35485 115 ft 8 kts 298°
2026-04-26 19:35 55.94845 -3.35575 115 ft 8 kts 298°
2026-04-26 19:35 55.94889 -3.35718 113 ft 17 kts 299°
2026-04-26 19:36 55.94950 -3.35851 114 ft 13 kts 338°
2026-04-26 19:36 55.94980 -3.35852 115 ft 13 kts 10°
2026-04-26 19:36 55.95064 -3.35907 115 ft 9 kts 299°
2026-04-26 19:36 55.95096 -3.36021 116 ft 12 kts 292°
2026-04-26 19:37 55.95136 -3.36228 116 ft 16 kts 278°
2026-04-26 19:37 55.95097 -3.36389 114 ft 13 kts 240°
2026-04-26 19:37 55.95055 -3.36519 114 ft 11 kts 240°
2026-04-26 19:37 55.95016 -3.36631 113 ft 10 kts 238°
2026-04-26 19:38 55.94982 -3.36729 115 ft 10 kts 239°
2026-04-26 19:38 55.94910 -3.36939 114 ft 24 kts 238°
2026-04-26 19:38 55.94820 -3.37205 113 ft 26 kts 239°
2026-04-26 19:38 55.94726 -3.37482 114 ft 27 kts 239°
2026-04-26 19:39 55.94631 -3.37759 115 ft 17 kts 238°
2026-04-26 19:39 55.94595 -3.37863 114 ft 9 kts 238°
2026-04-26 19:39 55.94607 -3.37967 114 ft 10 kts 318°
2026-04-26 19:39 55.94677 -3.38046 114 ft 14 kts 328°
2026-04-26 19:40 55.94725 -3.38059 112 ft 5 kts 33°
2026-04-26 19:40 55.94732 -3.38042 114 ft 0 kts 57°
2026-04-26 19:40 55.94815 -3.37803 115 ft 63 kts 59°
2026-04-26 19:41 55.95167 -3.36759 114 ft 129 kts 59°
2026-04-26 19:41 55.95681 -3.35200 479 ft 146 kts 59°
2026-04-26 19:41 55.96277 -3.33799 1135 ft 142 kts 38°
2026-04-26 19:41 55.96782 -3.33016 1465 ft 144 kts 38°
2026-04-26 19:42 55.97864 -3.31308 1762 ft 171 kts 39°
2026-04-26 19:42 55.98808 -3.29804 2021 ft 191 kts 39°
2026-04-26 19:42 55.99907 -3.28428 2450 ft 194 kts 18°
2026-04-26 19:42 56.01222 -3.28187 2937 ft 191 kts 346°
2026-04-26 19:43 56.02415 -3.29180 3443 ft 187 kts 316°
2026-04-26 19:43 56.03151 -3.31044 3827 ft 193 kts 288°
2026-04-26 19:43 56.03259 -3.33555 4051 ft 217 kts 258°
2026-04-26 19:43 56.02862 -3.36355 4444 ft 242 kts 255°
2026-04-26 19:44 56.02428 -3.39308 5098 ft 253 kts 256°
2026-04-26 19:44 56.01969 -3.42437 5769 ft 260 kts 256°
2026-04-26 19:44 56.01514 -3.45560 5962 ft 260 kts 256°
2026-04-26 19:44 56.01070 -3.48647 6010 ft 259 kts 256°
2026-04-26 19:45 56.00619 -3.51809 6008 ft 259 kts 256°
2026-04-26 19:45 56.00161 -3.54916 6018 ft 259 kts 251°
2026-04-26 19:45 55.99233 -3.57675 6423 ft 264 kts 226°
2026-04-26 19:45 55.97740 -3.59621 7324 ft 268 kts 212°
2026-04-26 19:46 55.96133 -3.61262 8245 ft 266 kts 210°
2026-04-26 19:46 55.94455 -3.62676 9216 ft 267 kts 204°
2026-04-26 19:46 55.92668 -3.63632 10181 ft 269 kts 193°
2026-04-26 19:46 55.90805 -3.64170 10898 ft 277 kts 191°
2026-04-26 19:47 55.88845 -3.64610 11410 ft 290 kts 190°
2026-04-26 19:47 55.87500 -3.64876 11784 ft 298 kts 188°
2026-04-26 19:47 55.84687 -3.64811 12581 ft 308 kts 181°
2026-04-26 19:47 55.82527 -3.64802 13224 ft 313 kts 185°
2026-04-26 19:48 55.80328 -3.64820 13918 ft 319 kts 181°
2026-04-26 19:48 55.78088 -3.64461 14578 ft 326 kts 174°
2026-04-26 19:48 55.75866 -3.63559 15217 ft 331 kts 169°
2026-04-26 19:48 55.73585 -3.62623 15681 ft 340 kts 173°
2026-04-26 19:49 55.71220 -3.62143 16109 ft 345 kts 182°
2026-04-26 19:49 55.68971 -3.62698 16879 ft 315 kts 202°
2026-04-26 19:49 55.67064 -3.64412 17816 ft 301 kts 221°
2026-04-26 19:49 55.65623 -3.66969 18761 ft 287 kts 237°
2026-04-26 19:50 55.64497 -3.69809 19626 ft 277 kts 238°
2026-04-26 19:50 55.63425 -3.72542 20505 ft 266 kts 238°
2026-04-26 19:50 55.62391 -3.75177 21420 ft 252 kts 238°
2026-04-26 19:50 55.61381 -3.77749 21942 ft 256 kts 238°
2026-04-26 19:51 55.60353 -3.80366 22220 ft 267 kts 238°
2026-04-26 19:51 55.59231 -3.83148 22266 ft 288 kts 232°
2026-04-26 19:51 55.57576 -3.85373 22270 ft 316 kts 206°
2026-04-26 19:51 55.55331 -3.86062 22316 ft 344 kts 179°
2026-04-26 19:52 55.52933 -3.85082 22454 ft 365 kts 167°
2026-04-26 19:52 55.50470 -3.83619 22585 ft 380 kts 164°
2026-04-26 19:52 55.47951 -3.81943 22761 ft 393 kts 162°
2026-04-26 19:52 55.45382 -3.80170 23165 ft 399 kts 162°
2026-04-26 19:53 55.42776 -3.78378 23681 ft 403 kts 162°
2026-04-26 19:53 55.40150 -3.76616 24141 ft 405 kts 163°
2026-04-26 19:53 55.37498 -3.74882 24579 ft 407 kts 163°
2026-04-26 19:53 55.34836 -3.73176 25032 ft 409 kts 164°
2026-04-26 19:54 55.32121 -3.71461 25222 ft 409 kts 164°
2026-04-26 19:54 55.29482 -3.69798 25267 ft 395 kts 164°
2026-04-26 19:54 55.26931 -3.68187 25268 ft 385 kts 164°
2026-04-26 19:54 55.24418 -3.66603 25268 ft 383 kts 164°
2026-04-26 19:55 55.21918 -3.65029 25272 ft 382 kts 164°
2026-04-26 19:55 55.19489 -3.63499 25271 ft 381 kts 164°
2026-04-26 19:55 55.16920 -3.61885 25272 ft 381 kts 164°
2026-04-26 19:55 55.14421 -3.60316 25274 ft 381 kts 164°
2026-04-26 19:56 55.11924 -3.58748 25275 ft 381 kts 164°
2026-04-26 19:56 55.09430 -3.57184 25278 ft 381 kts 164°
2026-04-26 19:56 55.06926 -3.55618 25275 ft 381 kts 164°
2026-04-26 19:56 55.04430 -3.54060 25272 ft 381 kts 164°
2026-04-26 19:57 55.01928 -3.52501 25273 ft 384 kts 164°
2026-04-26 19:57 54.99352 -3.50898 25277 ft 401 kts 163°
2026-04-26 19:57 54.96678 -3.49237 25279 ft 416 kts 163°
2026-04-26 19:57 54.93906 -3.47512 25280 ft 429 kts 163°
2026-04-26 19:58 54.91061 -3.45736 25282 ft 440 kts 163°
2026-04-26 19:58 54.88144 -3.43917 25282 ft 451 kts 163°
2026-04-26 19:58 54.85164 -3.42073 25285 ft 460 kts 163°
2026-04-26 19:58 54.82133 -3.40205 25286 ft 465 kts 163°
2026-04-26 19:59 54.79077 -3.38321 25286 ft 467 kts 163°
2026-04-26 19:59 54.76015 -3.36431 25288 ft 467 kts 163°
2026-04-26 19:59 54.72958 -3.34546 25288 ft 467 kts 163°
2026-04-26 19:59 54.69911 -3.32564 25287 ft 468 kts 161°
2026-04-26 20:00 54.66906 -3.30407 25287 ft 469 kts 159°
2026-04-26 20:00 54.63923 -3.28122 25290 ft 469 kts 158°
2026-04-26 20:00 54.60960 -3.25787 25288 ft 469 kts 158°
2026-04-26 20:00 54.57979 -3.23441 25284 ft 469 kts 158°
2026-04-26 20:01 54.55006 -3.21145 25284 ft 469 kts 159°
2026-04-26 20:01 54.52019 -3.18884 25277 ft 469 kts 159°
2026-04-26 20:01 54.49020 -3.16647 25059 ft 470 kts 159°
2026-04-26 20:01 54.46020 -3.14426 24820 ft 470 kts 159°
2026-04-26 20:02 54.43015 -3.12214 24578 ft 470 kts 159°
2026-04-26 20:02 54.39998 -3.10000 24337 ft 471 kts 159°
2026-04-26 20:02 54.36986 -3.07789 24109 ft 472 kts 159°
2026-04-26 20:02 54.34955 -3.06295 23585 ft 469 kts 158°
2026-04-26 20:03 54.30979 -3.03359 22263 ft 466 kts 158°
2026-04-26 20:03 54.28023 -3.01179 21442 ft 460 kts 158°
2026-04-26 20:03 54.25053 -2.98993 20668 ft 458 kts 158°
2026-04-26 20:03 54.22132 -2.96846 20230 ft 456 kts 158°
2026-04-26 20:04 54.19224 -2.94714 19645 ft 452 kts 158°
2026-04-26 20:04 54.16328 -2.92592 19448 ft 454 kts 158°
2026-04-26 20:04 54.13432 -2.90471 19114 ft 452 kts 157°
2026-04-26 20:04 54.10548 -2.88362 18791 ft 451 kts 157°
2026-04-26 20:05 54.07663 -2.86251 18446 ft 450 kts 157°
2026-04-26 20:05 54.04792 -2.84161 18111 ft 448 kts 157°
2026-04-26 20:05 54.01938 -2.82090 17785 ft 445 kts 157°
2026-04-26 20:05 53.99095 -2.80028 17458 ft 443 kts 157°
2026-04-26 20:06 53.96268 -2.77980 17151 ft 441 kts 157°
2026-04-26 20:06 53.93453 -2.75944 16822 ft 438 kts 157°
2026-04-26 20:06 53.90656 -2.73927 16522 ft 436 kts 158°
2026-04-26 20:06 53.87873 -2.71921 16212 ft 433 kts 158°
2026-04-26 20:07 53.85212 -2.70006 15910 ft 431 kts 158°
2026-04-26 20:07 53.82462 -2.68029 15596 ft 428 kts 158°
2026-04-26 20:07 53.79726 -2.66063 15290 ft 426 kts 158°
2026-04-26 20:07 53.77012 -2.64115 14983 ft 423 kts 158°
2026-04-26 20:08 53.74309 -2.62176 14646 ft 420 kts 158°
2026-04-26 20:08 53.71628 -2.60258 14323 ft 418 kts 158°
2026-04-26 20:08 53.69840 -2.59058 14085 ft 416 kts 162°
2026-04-26 20:08 53.67017 -2.58173 13748 ft 411 kts 178°
2026-04-26 20:09 53.64201 -2.58617 13440 ft 407 kts 194°
2026-04-26 20:09 53.61584 -2.60337 13121 ft 403 kts 210°
2026-04-26 20:09 53.59350 -2.63150 12834 ft 401 kts 225°
2026-04-26 20:09 53.57636 -2.66806 12538 ft 398 kts 237°
2026-04-26 20:10 53.56119 -2.70695 12237 ft 396 kts 237°
2026-04-26 20:10 53.54605 -2.74553 11949 ft 394 kts 237°
2026-04-26 20:10 53.53081 -2.78375 11561 ft 392 kts 236°
2026-04-26 20:10 53.51570 -2.82158 11133 ft 389 kts 236°
2026-04-26 20:11 53.50065 -2.85922 10714 ft 385 kts 236°
2026-04-26 20:11 53.48593 -2.89601 10305 ft 374 kts 236°
2026-04-26 20:11 53.47183 -2.93121 10282 ft 350 kts 236°
2026-04-26 20:12 53.44725 -2.99254 10292 ft 286 kts 236°
2026-04-26 20:12 53.43662 -3.01903 10296 ft 260 kts 236°
2026-04-26 20:12 53.42675 -3.04363 10111 ft 251 kts 236°
2026-04-26 20:12 53.41708 -3.06770 9758 ft 247 kts 236°
2026-04-26 20:13 53.40749 -3.09157 9413 ft 247 kts 236°
2026-04-26 20:13 53.39769 -3.11508 9068 ft 245 kts 229°
2026-04-26 20:13 53.38381 -3.13095 8730 ft 243 kts 198°
2026-04-26 20:13 53.36709 -3.13483 8405 ft 244 kts 183°
2026-04-26 20:14 53.35011 -3.13540 8073 ft 244 kts 181°
2026-04-26 20:14 53.33317 -3.13554 7750 ft 243 kts 181°
2026-04-26 20:14 53.31627 -3.13561 7427 ft 242 kts 181°
2026-04-26 20:14 53.29945 -3.13567 7113 ft 241 kts 181°
2026-04-26 20:15 53.28271 -3.13571 6804 ft 240 kts 181°
2026-04-26 20:15 53.26587 -3.13453 6471 ft 240 kts 168°
2026-04-26 20:15 53.25128 -3.12185 6142 ft 239 kts 136°
2026-04-26 20:15 53.24296 -3.09862 5820 ft 240 kts 104°
2026-04-26 20:16 53.24188 -3.07055 5493 ft 240 kts 88°
2026-04-26 20:16 53.24295 -3.04283 5161 ft 239 kts 86°
2026-04-26 20:16 53.24429 -3.01532 5002 ft 237 kts 86°
2026-04-26 20:16 53.24567 -2.98781 4819 ft 236 kts 86°
2026-04-26 20:17 53.24705 -2.96044 4659 ft 237 kts 86°
2026-04-26 20:17 53.24845 -2.93301 4498 ft 237 kts 86°
2026-04-26 20:17 53.24984 -2.90563 4336 ft 236 kts 86°
2026-04-26 20:17 53.25077 -2.88754 4233 ft 237 kts 86°
2026-04-26 20:18 53.25263 -2.85090 4014 ft 236 kts 86°
2026-04-26 20:18 53.25400 -2.82392 3862 ft 236 kts 86°
2026-04-26 20:18 53.25539 -2.79667 3704 ft 236 kts 86°
2026-04-26 20:18 53.25676 -2.76951 3547 ft 232 kts 86°
2026-04-26 20:19 53.25811 -2.74300 3369 ft 225 kts 86°
2026-04-26 20:19 53.25940 -2.71757 3170 ft 215 kts 86°
2026-04-26 20:19 53.26065 -2.69310 2972 ft 208 kts 86°
2026-04-26 20:19 53.26185 -2.66920 2789 ft 205 kts 86°
2026-04-26 20:20 53.26304 -2.64559 2634 ft 203 kts 85°
2026-04-26 20:20 53.26423 -2.62212 2537 ft 202 kts 84°
2026-04-26 20:20 53.26894 -2.60041 2514 ft 202 kts 49°
2026-04-26 20:20 53.28049 -2.58794 2549 ft 201 kts 12°
2026-04-26 20:21 53.29429 -2.58540 2515 ft 199 kts
2026-04-26 20:21 53.30817 -2.58496 2501 ft 199 kts 359°
2026-04-26 20:21 53.32201 -2.58486 2502 ft 199 kts 356°
2026-04-26 20:21 53.33494 -2.59159 2505 ft 196 kts 322°
2026-04-26 20:22 53.34278 -2.60927 2510 ft 188 kts 286°
2026-04-26 20:22 53.34357 -2.63054 2439 ft 183 kts 265°
2026-04-26 20:22 53.34259 -2.65151 2249 ft 178 kts 264°
2026-04-26 20:22 53.34165 -2.67188 2025 ft 173 kts 265°
2026-04-26 20:23 53.34075 -2.69173 1791 ft 169 kts 265°
2026-04-26 20:23 53.33989 -2.71099 1573 ft 163 kts 266°
2026-04-26 20:23 53.33906 -2.72963 1359 ft 160 kts 266°
2026-04-26 20:23 53.33823 -2.74806 1146 ft 157 kts 267°
2026-04-26 20:24 53.33744 -2.76556 937 ft 145 kts 268°
2026-04-26 20:24 53.33671 -2.78192 737 ft 138 kts 267°
2026-04-26 20:24 53.33598 -2.79794 549 ft 136 kts 267°
2026-04-26 20:24 53.33528 -2.81350 368 ft 133 kts 265°
2026-04-26 20:25 53.33458 -2.82862 177 ft 131 kts 264°
2026-04-26 20:25 53.33408 -2.83872 91 ft 123 kts 265°
2026-04-26 20:25 53.33355 -2.85042 85 ft 31 kts 264°
2026-04-26 20:25 53.33385 -2.85379 90 ft 29 kts 291°
2026-04-26 20:26 53.33440 -2.85608 88 ft 12 kts 292°
2026-04-26 20:26 53.33444 -2.85624 89 ft 3 kts 291°
2026-04-26 20:26 53.33466 -2.85669 86 ft 3 kts 322°
2026-04-26 20:26 53.33496 -2.85620 87 ft 16 kts 77°
2026-04-26 20:27 53.33508 -2.85463 85 ft 13 kts 85°
2026-04-26 20:27 53.33513 -2.85325 85 ft 11 kts 86°
2026-04-26 20:27 53.33519 -2.85195 87 ft 13 kts 86°
2026-04-26 20:27 53.33534 -2.85078 88 ft 8 kts 45°
2026-04-26 20:28 53.33587 -2.85066 86 ft 10 kts 356°
2026-04-26 20:28 53.33625 -2.85077 86 ft 1 kts 317°
2026-04-26 20:28 53.33626 -2.85084 89 ft 0 kts 294°
2026-04-26 20:28 53.33632 -2.85112 87 ft 4 kts 285°
2026-04-26 20:29 53.33631 -2.85154 85 ft 3 kts 264°
2026-04-26 20:29 53.33630 -2.85161 85 ft 1 kts 264°
2026-04-26 20:29 53.33629 -2.85183 85 ft 2 kts 262°
2026-04-26 20:29 53.33628 -2.85195 85 ft 0 kts 262°